[[{"header":{"parameterUnit":"m.s-1","parameterCategory":1,"la1":30.2991,"la2":30.254,"lo1":-89.0895,"lo2":-89.0444,"dy":0.0017,"dx":0.0017,"nx":28,"ny":28,"refTime":"2024-05-04T21:00:00:Z","depth":0,"parameterNumber":2,"parameterNumberName":"U-component_of_WINDS"},"data":[0,0,0,0,0,0,0,0,0,0,0,0,0,0,0,0,0,0,0,0,0,0,0,0,0,0,0,0,0,0,0,0,0,0,0,0,0,0,0,0,0,0,0,0,0,0,0,0,0,0,0,0,0,0,0,0,0,0,-1.5636,-1.5636,0,-1.5662,-1.5663,-1.5663,-1.5646,-1.5645,-1.5644,-1.5644,-1.5671,-1.5672,-1.5674,0,0,0,0,0,0,0,0,0,0,0,0,0,-1.5571,-1.5572,-1.5636,-1.5636,-1.5636,-1.5662,-1.5663,-1.5663,-1.5646,-1.5645,-1.5644,-1.5643,-1.567,-1.5672,-1.5674,0,0,0,0,0,0,0,0,0,0,0,0,0,-1.5599,-1.5573,-1.5636,-1.5631,-1.5631,-1.5662,-1.5663,-1.5663,-1.5646,-1.5645,-1.5644,-1.5643,-1.567,-1.5672,-1.5674,-1.5711,0,0,-1.5681,-1.5682,0,0,0,0,0,0,0,0,-1.5597,-1.5601,-1.5631,-1.5631,-1.5631,-1.565,-1.565,-1.5679,-1.5647,-1.564,-1.5644,-1.5642,-1.5665,-1.5667,-1.5675,-1.5713,-1.5714,-1.5681,-1.5682,-1.5683,-1.5684,0,0,0,0,0,0,0,-1.5595,-1.56,-1.5646,-1.5632,-1.5632,-1.5628,-1.5631,-1.5655,-1.5659,-1.5641,-1.564,-1.5643,-1.5664,-1.5673,-1.5675,-1.5714,-1.5681,-1.5683,-1.5684,-1.5685,-1.5785,-1.5786,0,0,0,0,0,0,-1.5594,-1.5598,-1.5645,-1.5647,-1.5611,-1.563,-1.5633,-1.5645,-1.5659,-1.566,-1.5644,-1.5642,-1.567,-1.5673,-1.5676,-1.5721,-1.5683,-1.5685,-1.5686,-1.5783,-1.5785,-1.5786,0,0,0,0,0,0,-1.5592,-1.5598,-1.5644,-1.5622,-1.5628,-1.5632,-1.5646,-1.5646,-1.5654,-1.5661,-1.5662,-1.5652,-1.5669,-1.5673,-1.5703,-1.5722,-1.5686,-1.5688,-1.5782,-1.5784,-1.5786,-1.5811,0,0,0,0,0,0,-1.559,-1.5598,-1.5611,-1.5623,-1.5629,-1.567,-1.5647,-1.5647,-1.5658,-1.5656,-1.5668,-1.5669,-1.5668,-1.57,-1.5705,-1.5724,-1.569,-1.578,-1.5783,-1.5785,-1.5809,-1.5814,-1.5818,0,0,0,0,0,-1.5588,-1.5617,-1.5612,-1.5618,-1.5647,-1.5672,-1.5675,-1.5673,-1.566,-1.5674,-1.5678,-1.5669,-1.5719,-1.5703,-1.5709,-1.5729,-1.5779,-1.5782,-1.5785,-1.5806,-1.5813,-1.5818,0,0,0,0,0,0,-1.5608,-1.5619,-1.5613,-1.5647,-1.5659,-1.5669,-1.5686,-1.568,-1.5695,-1.5693,-1.569,-1.5693,-1.5724,-1.5729,-1.5711,-1.5766,-1.5747,-1.5751,-1.5761,-1.5767,-1.5772,-1.577,-1.5692,0,0,0,0,0,-1.5617,-1.5636,-1.5644,-1.5673,-1.5679,-1.5682,-1.5693,-1.569,-1.5702,-1.5707,-1.5713,-1.5725,-1.5744,-1.5756,-1.5773,-1.5809,-1.5812,-1.5826,-1.5831,-1.5835,-1.5839,-1.5859,-1.5865,-1.5796,-1.5796,-1.5796,0,0,-1.5634,-1.5642,-1.5654,-1.5677,-1.5686,-1.5706,-1.5686,-1.5708,-1.5723,-1.571,-1.5739,-1.5744,-1.5757,-1.579,-1.5805,-1.5796,-1.5858,-1.5839,-1.5842,-1.5843,-1.5862,-1.5869,-1.5875,-1.5798,-1.5798,-1.5797,0,0,-1.5676,-1.5684,-1.5709,-1.5718,-1.5732,-1.5734,-1.574,-1.5751,-1.5754,-1.5783,-1.5774,-1.5792,-1.5823,-1.5833,-1.5843,-1.5889,-1.5881,-1.5895,-1.592,-1.594,-1.5945,-1.595,-1.5967,-1.5973,-1.5899,-1.5899,-1.5899,0,-1.5696,-1.5726,-1.5723,-1.5746,-1.5757,-1.5746,-1.5772,-1.5781,-1.5799,-1.5807,-1.5796,-1.5836,-1.5844,-1.588,-1.5892,-1.5899,-1.5907,-1.5893,-1.5944,-1.5949,-1.5954,-1.597,-1.5976,-1.59,-1.59,-1.59,-1.59,0,-1.575,-1.5771,-1.5789,-1.5808,-1.582,-1.5845,-1.5846,-1.5859,-1.5856,-1.5859,-1.5889,-1.5898,-1.5918,-1.5926,-1.5923,-1.5962,-1.5956,-1.5945,-1.5925,-1.5962,-1.5977,-1.5983,-1.5903,-1.5902,-1.5902,-1.5901,0,0,-1.5804,-1.5822,-1.5829,-1.5837,-1.5851,-1.5868,-1.5892,-1.5911,-1.5922,-1.5936,-1.5956,-1.5983,-1.5974,-1.5984,-1.5982,-1.6,-1.6037,-1.5987,-1.5987,-1.5996,-1.608,-1.6088,-1.6095,-1.6031,-1.6033,-1.6034,-1.6079,0,-1.5848,-1.5889,-1.5888,-1.5927,-1.5947,-1.5938,-1.5959,-1.597,-1.5974,-1.5991,-1.5995,-1.6015,-1.6,-1.6007,-1.6023,-1.6028,-1.6053,-1.6025,-1.605,-1.6051,-1.6047,-1.6103,-1.6112,-1.6154,-1.6085,-1.6086,-1.6087,0,-1.5903,-1.5919,-1.596,-1.5972,-1.598,-1.5999,-1.6016,-1.6033,-1.6046,-1.6047,-1.606,-1.6055,-1.608,-1.606,-1.6094,-1.6075,-1.6086,-1.609,-1.6091,-1.6094,-1.6071,-1.6107,-1.6168,-1.6174,-1.6096,-1.6095,-1.6095,0,-1.5939,-1.597,-1.5999,-1.6007,-1.6021,-1.6035,-1.6042,-1.6053,-1.6065,-1.6081,-1.6088,-1.6107,-1.6117,-1.6131,-1.6132,-1.6117,-1.6167,-1.6147,-1.6169,-1.6169,-1.6179,-1.6179,-1.6243,-1.6186,-1.6186,-1.6186,-1.6186,0,-1.5988,-1.6013,-1.6016,-1.6033,-1.6062,-1.606,-1.6089,-1.6094,-1.6105,-1.6124,-1.6117,-1.6135,-1.6135,-1.6153,-1.6154,-1.6182,-1.6187,-1.6189,-1.6189,-1.619,-1.6189,-1.6196,-1.6193,-1.6188,-1.6187,-1.6187,-1.6187,0,-1.6033,-1.6035,-1.6066,-1.6078,-1.6081,-1.6102,-1.6112,-1.6129,-1.6132,-1.6156,-1.6162,-1.6167,-1.6188,-1.6191,-1.6215,-1.6216,-1.625,-1.6247,-1.6246,-1.6245,-1.6268,-1.6266,-1.6338,-1.6348,-1.6285,-1.6286,-1.6286,0,-1.6063,-1.6083,-1.6097,-1.6109,-1.6117,-1.6136,-1.6148,-1.6148,-1.6161,-1.6177,-1.6192,-1.6213,-1.6229,-1.6264,-1.627,-1.6289,-1.6286,-1.631,-1.6289,-1.6289,-1.6287,-1.6286,-1.6288,-1.6314,-1.6315,-1.6316,-1.6316,0,-1.6118,-1.6118,-1.6136,-1.6154,-1.6168,-1.6183,-1.6196,-1.6207,-1.6208,-1.6223,-1.6245,-1.6257,-1.6283,-1.6304,-1.6322,-1.633,-1.6323,-1.6323,-1.6329,-1.633,-1.6329,-1.633,-1.6257,-1.6321,-1.6321,-1.632,-1.632,-1.632,-1.6157,-1.6174,-1.6186,-1.6206,-1.6216,-1.6229,-1.6246,-1.6252,-1.627,-1.629,-1.6289,-1.6313,-1.6326,-1.6351,-1.6359,-1.6378,-1.637,-1.6379,-1.6381,-1.6384,-1.6386,-1.6326,-1.6382,-1.6382,-1.6382,-1.6381,-1.6381,0,-1.6211,-1.6219,-1.6237,-1.6256,-1.6272,-1.6265,-1.6279,-1.6293,-1.6314,-1.6327,-1.6343,-1.6369,-1.6389,-1.6397,-1.6417,-1.643,-1.6428,-1.6436,-1.6435,-1.6436,-1.6392,-1.6385,-1.6437,-1.6437,-1.6437,-1.6437,-1.6437,-1.6437,-1.6241,-1.627,-1.6272,-1.6305,-1.6313,-1.6336,-1.6346,-1.6358,-1.6368,-1.6396,-1.6413,-1.6418,-1.6429,-1.6449,-1.6468,-1.647,-1.6477,-1.6486,-1.6487,-1.6445,-1.644,-1.6434,-1.6427,-1.6488,-1.6488,-1.653,-1.653,-1.6531]},{"header":{"parameterUnit":"m.s-1","parameterCategory":1,"la1":30.2991,"la2":30.254,"lo1":-89.0895,"lo2":-89.0444,"dy":0.0017,"dx":0.0017,"nx":28,"ny":28,"refTime":"2024-05-04T21:00:00:Z","depth":0,"parameterNumber":3,"parameterNumberName":"V-component_of_WINDS"},"data":[0,0,0,0,0,0,0,0,0,0,0,0,0,0,0,0,0,0,0,0,0,0,0,0,0,0,0,0,0,0,0,0,0,0,0,0,0,0,0,0,0,0,0,0,0,0,0,0,0,0,0,0,0,0,0,0,0,0,3.7528,3.7529,0,3.7612,3.7613,3.7614,3.7588,3.7586,3.7585,3.7583,3.7666,3.767,3.7673,0,0,0,0,0,0,0,0,0,0,0,0,0,3.7343,3.7347,3.7528,3.7529,3.753,3.7612,3.7613,3.7614,3.7589,3.7586,3.7584,3.7582,3.7665,3.7669,3.7674,0,0,0,0,0,0,0,0,0,0,0,0,0,3.7425,3.7348,3.7528,3.7527,3.7528,3.7611,3.7613,3.7614,3.7589,3.7586,3.7584,3.7581,3.7663,3.7669,3.7674,3.7762,0,0,3.7692,3.7694,0,0,0,0,0,0,0,0,3.742,3.7432,3.7526,3.7528,3.7529,3.7587,3.7578,3.7664,3.759,3.7566,3.7583,3.758,3.7642,3.7649,3.767,3.7766,3.777,3.7692,3.7696,3.7698,3.77,0,0,0,0,0,0,0,3.7415,3.7428,3.7561,3.7528,3.7529,3.7522,3.7531,3.7594,3.7617,3.7568,3.7566,3.7576,3.7642,3.7665,3.7672,3.7771,3.7692,3.7697,3.7701,3.7703,3.7943,3.7946,0,0,0,0,0,0,3.7409,3.7423,3.7558,3.7564,3.7467,3.7527,3.7537,3.7571,3.7617,3.7621,3.7579,3.7575,3.7656,3.7665,3.7675,3.7781,3.7698,3.7704,3.7707,3.794,3.7944,3.7947,0,0,0,0,0,0,3.7405,3.7421,3.7555,3.7493,3.751,3.7533,3.7571,3.7574,3.7597,3.7625,3.7628,3.7598,3.7655,3.7667,3.7741,3.7784,3.7706,3.7712,3.7937,3.7941,3.7945,3.7994,0,0,0,0,0,0,3.74,3.742,3.7454,3.7494,3.7513,3.7621,3.7574,3.7577,3.7607,3.7603,3.7644,3.7648,3.7653,3.7733,3.7747,3.779,3.7716,3.7933,3.7939,3.7944,3.7989,3.8,3.8009,0,0,0,0,0,3.7393,3.7464,3.7456,3.7472,3.7557,3.7623,3.7634,3.7639,3.7611,3.7645,3.7663,3.7647,3.7777,3.774,3.7756,3.7802,3.793,3.7937,3.7944,3.7984,3.7998,3.8009,0,0,0,0,0,0,3.7427,3.7469,3.7461,3.7547,3.7582,3.7619,3.7663,3.7653,3.7696,3.7691,3.7694,3.7703,3.778,3.7798,3.7757,3.7889,3.7849,3.7859,3.7875,3.7888,3.7897,3.7892,3.7721,0,0,0,0,0,3.7445,3.7497,3.753,3.7603,3.7621,3.7639,3.7668,3.7669,3.7705,3.7719,3.7742,3.7777,3.7826,3.7857,3.7903,3.7991,3.8,3.803,3.804,3.8048,3.8057,3.8105,3.8119,3.7969,3.7968,3.7968,0,0,3.7482,3.7511,3.7544,3.7611,3.7638,3.769,3.7651,3.7709,3.7747,3.7728,3.78,3.7818,3.7857,3.7938,3.7975,3.7956,3.8101,3.8057,3.8063,3.8068,3.8113,3.8127,3.814,3.7973,3.7972,3.7971,0,0,3.7577,3.7604,3.7668,3.7696,3.7738,3.7749,3.7765,3.7803,3.7815,3.7887,3.7874,3.7919,3.8003,3.8031,3.8056,3.8161,3.8148,3.8176,3.8229,3.8275,3.8287,3.8298,3.8335,3.8349,3.8184,3.8185,3.8185,0,3.7617,3.7697,3.7702,3.7761,3.779,3.7775,3.7839,3.7866,3.7921,3.7941,3.7919,3.8023,3.8048,3.8136,3.8162,3.8183,3.82,3.8172,3.8285,3.8296,3.8306,3.8342,3.8356,3.8188,3.8187,3.8187,3.8187,0,3.7745,3.78,3.7847,3.7901,3.7935,3.7997,3.801,3.8044,3.8041,3.8055,3.8128,3.8158,3.821,3.8231,3.8228,3.8318,3.8305,3.8284,3.8244,3.8323,3.8357,3.8371,3.8192,3.8191,3.819,3.8189,0,0,3.7865,3.792,3.7937,3.7962,3.8007,3.8049,3.8109,3.8161,3.819,3.8228,3.8278,3.8349,3.833,3.8358,3.8359,3.84,3.8481,3.8374,3.8374,3.8393,3.8582,3.8599,3.8615,3.8473,3.8475,3.8477,3.8579,0,3.7963,3.807,3.8076,3.8173,3.8224,3.821,3.8262,3.8295,3.8309,3.8353,3.8368,3.8418,3.8389,3.8406,3.8446,3.8463,3.8519,3.8456,3.8519,3.8521,3.8511,3.8632,3.865,3.8745,3.8592,3.8595,3.8596,0,3.8093,3.8136,3.8239,3.8276,3.8298,3.8345,3.8392,3.8435,3.8472,3.8479,3.8511,3.8506,3.8566,3.8524,3.8607,3.8563,3.8589,3.8602,3.8605,3.8612,3.8564,3.8643,3.8775,3.8789,3.8617,3.8615,3.8614,0,3.8171,3.8254,3.8326,3.8347,3.8393,3.8426,3.8446,3.848,3.8511,3.8552,3.8572,3.8619,3.8645,3.8682,3.8689,3.8657,3.8772,3.873,3.878,3.878,3.8806,3.8804,3.8944,3.8821,3.8821,3.8821,3.882,0,3.8282,3.8345,3.8362,3.8406,3.8476,3.8481,3.855,3.8568,3.8598,3.8645,3.8635,3.8679,3.8686,3.8731,3.8737,3.8805,3.8817,3.8824,3.8825,3.8826,3.8825,3.8843,3.8837,3.8824,3.8824,3.8823,3.8822,0,3.8381,3.8395,3.8472,3.8509,3.852,3.857,3.8601,3.8643,3.8655,3.8715,3.8729,3.8749,3.8801,3.8812,3.8874,3.8878,3.896,3.8954,3.8948,3.8948,3.8997,3.8993,3.9155,3.9176,3.9038,3.904,3.9041,0,3.8451,3.8499,3.8542,3.8573,3.8595,3.8645,3.8676,3.8683,3.8716,3.8761,3.8797,3.8849,3.8891,3.8976,3.8995,3.9043,3.9038,3.9092,3.9045,3.9044,3.904,3.9037,3.9042,3.9101,3.9102,3.9103,3.9104,0,3.8574,3.8579,3.8625,3.8674,3.8711,3.875,3.8786,3.8812,3.8823,3.886,3.8915,3.8947,3.9011,3.9063,3.911,3.913,3.9119,3.9119,3.9133,3.9135,3.913,3.9134,3.8973,3.9115,3.9114,3.9113,3.9113,3.9112,3.8662,3.8704,3.874,3.8792,3.882,3.8854,3.8896,3.8914,3.8959,3.9013,3.9013,3.9072,3.9107,3.917,3.9192,3.9238,3.9221,3.9242,3.9247,3.9252,3.9257,3.9121,3.9247,3.9247,3.9246,3.9246,3.9246,0,3.8785,3.8808,3.8855,3.8907,3.8947,3.8934,3.8973,3.9008,3.906,3.9094,3.9135,3.9198,3.9248,3.9271,3.932,3.9352,3.9348,3.9365,3.9363,3.9368,3.9269,3.9253,3.9367,3.9367,3.9367,3.9367,3.9367,3.9367,3.8854,3.8925,3.8934,3.9018,3.904,3.9099,3.9123,3.9154,3.9181,3.9251,3.9293,3.9308,3.9337,3.9388,3.9433,3.9438,3.9457,3.9476,3.9479,3.9387,3.9375,3.9363,3.9347,3.948,3.948,3.9574,3.9575,3.9575]}]]